Tracking 22105 objects as of 21-Jan-2021
HD Live streaming from Space Station
objects crossing your sky now

USA 310

Track USA 310 now!
10-day predictions
USA 310 is classified as:


NORAD ID: 46918
Int'l Code: 2020-083A
Perigee: 11,081.5 km
Apogee: 11,104.9 km
Inclination: 58.5 °
Period: 382.8 minutes
Semi major axis: 17464 km
RCS: Unknown
Launch date: November 13, 2020
Source: United States (US)
Launch site: AIR FORCE EASTERN TEST RANGE (AFETR)
aabbcc
Your satellite tracking list
Your tracking list is empty




NASA's NSSDC Master Catalog

Two Line Element Set (TLE):
1 46918U 20083A   21017.90400655 0.00000000  00000-0  00000-0 0    04
2 46918  58.5275 284.3089 0006695 275.3299  84.6701  3.76166494    01
Source of the keplerian elements: McCants